TimeEDT,TemperatureF,Dew PointF,Humidity,Sea Level PressureIn,VisibilityMPH,Wind Direction,Wind SpeedMPH,Gust SpeedMPH,PrecipitationIn,Events,Conditions,WindDirDegrees,DateUTC
12:54 AM,63.0,57.0,81,29.93,10.0,East,3.5,-,N/A,,Mostly Cloudy,90,2014-06-10 04:54:00
1:54 AM,61.0,55.9,83,29.91,10.0,East,4.6,-,N/A,,Mostly Cloudy,90,2014-06-10 05:54:00
2:54 AM,62.1,55.9,80,29.92,10.0,Calm,Calm,-,N/A,,Mostly Cloudy,0,2014-06-10 06:54:00
3:54 AM,60.1,57.0,90,29.92,10.0,Calm,Calm,-,N/A,,Overcast,0,2014-06-10 07:54:00
4:54 AM,59.0,55.9,90,29.91,10.0,Calm,Calm,-,N/A,,Overcast,0,2014-06-10 08:54:00
5:54 AM,59.0,55.0,87,29.91,10.0,NE,4.6,-,N/A,,Mostly Cloudy,50,2014-06-10 09:54:00
6:54 AM,61.0,57.0,87,29.92,7.0,NE,8.1,-,N/A,,Overcast,50,2014-06-10 10:54:00
7:54 AM,62.1,57.0,84,29.92,8.0,East,8.1,-,N/A,,Overcast,90,2014-06-10 11:54:00
8:54 AM,63.0,57.9,84,29.92,7.0,ENE,9.2,-,N/A,,Overcast,60,2014-06-10 12:54:00
9:54 AM,64.0,59.0,84,29.92,7.0,ENE,10.4,-,0.00,Rain,Light Rain,70,2014-06-10 13:54:00
10:54 AM,66.2,60.8,83,29.93,6.0,East,8.1,-,N/A,Rain,Light Rain,90,2014-06-10 14:54:00
11:54 AM,68.0,62.1,81,29.93,8.0,East,10.4,-,0.00,,Overcast,90,2014-06-10 15:54:00
12:54 PM,71.6,62.6,73,29.93,8.0,East,12.7,-,N/A,,Mostly Cloudy,100,2014-06-10 16:54:00
1:54 PM,73.0,61.0,66,29.91,10.0,East,16.1,-,0.00,,Mostly Cloudy,100,2014-06-10 17:54:00
2:54 PM,73.4,60.8,65,29.90,10.0,ESE,16.1,21.9,N/A,,Mostly Cloudy,110,2014-06-10 18:54:00
3:54 PM,73.9,60.1,62,29.88,10.0,ESE,15.0,-,N/A,,Mostly Cloudy,120,2014-06-10 19:54:00
4:54 PM,75.2,60.8,61,29.87,10.0,East,18.4,23.0,N/A,,Mostly Cloudy,100,2014-06-10 20:54:00
5:54 PM,75.0,60.1,60,29.85,10.0,ESE,18.4,23.0,N/A,,Mostly Cloudy,110,2014-06-10 21:54:00
6:54 PM,73.9,60.1,62,29.84,10.0,ESE,13.8,-,N/A,,Overcast,120,2014-06-10 22:54:00
7:54 PM,72.0,62.1,71,29.84,9.0,SE,12.7,-,0.00,Rain,Light Rain,130,2014-06-10 23:54:00
8:54 PM,68.0,63.0,84,29.83,5.0,ESE,10.4,-,0.04,Rain,Rain,110,2014-06-11 00:54:00
9:54 PM,66.9,64.0,90,29.82,4.0,East,9.2,-,0.06,Rain,Rain,100,2014-06-11 01:54:00
10:54 PM,66.2,62.6,88,29.82,6.0,East,9.2,-,N/A,Rain,Light Rain,90,2014-06-11 02:54:00
11:54 PM,66.0,63.0,90,29.80,4.0,East,12.7,-,0.00,Rain,Light Rain,100,2014-06-11 03:54:00